Powrót do katalogu

CZ-4C R/B

AktywnySSO
NORAD 53699·ROCKET BODY·🇨🇳 China

Wystrzelony Sep 2, 2022 z Jiuquan Satellite Launch Center

Loading…

Następne Przeloty (najbliższe 24 godziny)

TLE

ŚwieżeSource: Space-Track

Epoka: Sep 14, 2026, 05:55 UTC

1 53699U 22106B   26257.24693576  .00002591  00000-0  17293-3 0  9999
2 53699  98.0469 343.8593 0107310 212.0118 147.4559 15.03404560220302

Śledź CZ-4C R/B w czasie rzeczywistym z AllMySat

Download on the App Store